Flag for Russia Weather past 2 weeks in Yakutsk, Russia

Now
63 °F

Sunny.


Feels Like: 63 °F
Forecast: 47 / 73 °F
Wind: 1 mph from Northwest

Location: Jakutsk

Current Time: Jul 5, 2015 at 8:23:05 AM

Latest Report: Jul 5, 2015 at 8:00 AM


Visibility: 10 mi

Pressure: 29.77 "Hg

Humidity: 45%

Dew point: 41 °F

Location of YakutskLocation

Historic Weather in Yakutsk — Graph

°F

Yakutsk temperature yesterday

Maximum temperature yesterday: 68 °F (at 1:00 PM)
Minimum temperature yesterday: 50 °F (at 11:30 PM)
Average temperature yesterday: 61 °F

Past Weeks' High & Low Weather Summary

 TemperatureHumidityPressure
High77 °F (Jul 1, 3:00 PM)100% (Jun 22, 9:30 PM)29.77 "Hg (Jun 22, 9:30 PM)
Low43 °F (Jul 5, 3:00 AM)21% (Jun 20, 2:30 PM)29.30 "Hg (Jun 25, 5:30 AM)
Average60 °F66%29.62 "Hg
* Reported Jun 20 7:00 AM — Jul 5 7:30 AM, Yakutsk, Weather by CustomWeather, © 2015

Note: Actual official high and low records may vary slightly from our data, if they occured in-between our weather recording intervals... More about our weather records

Advertising

Yakutsk weather history for previous 24 hours

 ConditionsComfort  
Time TempWeatherWind HumidityBarometerVisibility
7:30 AM
Sun, Jul 5
61 °FSunny.1 mph45%29.77 "Hg10 mi
7:00 AM57 °FSunny.1 mph51%29.77 "Hg10 mi
6:30 AM55 °FSunny.3 mph55%29.74 "Hg10 mi
6:00 AM52 °FSunny.6 mph58%29.74 "Hg10 mi
5:30 AM50 °FSunny.3 mph62%29.74 "Hg10 mi
5:00 AM46 °FPassing clouds.6 mph66%29.74 "HgN/A
4:30 AM46 °FSunny.1 mph71%29.74 "Hg10 mi
4:00 AM45 °FSunny.6 mph71%29.74 "Hg10 mi
3:30 AM43 °FSunny.3 mph76%29.74 "Hg10 mi
3:00 AM43 °FSunny.3 mph76%29.74 "Hg10 mi
2:30 AM45 °FPassing clouds.3 mph76%29.74 "HgN/A
2:00 AM46 °FClear.6 mph71%29.74 "Hg10 mi
1:30 AM46 °FClear.6 mph76%29.74 "Hg10 mi
1:00 AM46 °FClear.6 mph76%29.74 "Hg10 mi
12:30 AM48 °FClear.6 mph76%29.74 "Hg10 mi
12:00 AM50 °FClear.3 mph76%29.74 "Hg10 mi
11:30 PM
Sat, Jul 4
50 °FClear.3 mph76%29.74 "Hg10 mi
11:00 PM54 °FClear.3 mph72%29.74 "Hg10 mi
10:30 PM55 °FClear.3 mph67%29.74 "Hg10 mi
10:00 PM57 °FSunny.3 mph63%29.71 "Hg10 mi
9:30 PM61 °FSunny.3 mph55%29.71 "Hg10 mi
9:00 PM64 °FSunny.3 mph46%29.71 "Hg10 mi
8:30 PM66 °FSunny.3 mph43%29.71 "Hg10 mi
8:00 PM66 °FSunny.6 mph40%29.71 "Hg10 mi
7:30 PM68 °FSunny.8 mph33%29.71 "Hg10 mi
7:00 PM68 °FSunny.8 mph33%29.71 "Hg10 mi
6:30 PM68 °FSunny.6 mph35%29.71 "Hg10 mi
6:00 PM68 °FSunny.6 mph43%29.71 "Hg10 mi
5:30 PM68 °FSunny.10 mph43%29.71 "Hg10 mi
5:00 PM68 °FPassing clouds.6 mph49%29.71 "HgN/A
4:30 PM68 °FScattered clouds.6 mph49%29.71 "HgN/A
4:00 PM63 °FScattered clouds.6 mph59%29.71 "HgN/A
3:30 PM64 °FScattered clouds.3 mph56%29.71 "HgN/A
3:00 PM63 °FScattered clouds.6 mph59%29.74 "HgN/A
2:30 PM63 °FScattered clouds.10 mph56%29.74 "HgN/A
2:00 PM66 °FScattered clouds.13 mph49%29.74 "HgN/A
1:30 PM68 °FScattered clouds.13 mph40%29.74 "HgN/A
1:00 PM68 °FScattered clouds.8 mph40%29.74 "HgN/A
12:30 PM66 °FScattered clouds.10 mph40%29.77 "HgN/A
12:00 PM64 °FScattered clouds.10 mph40%29.74 "HgN/A
11:30 AM66 °FScattered clouds.15 mph40%29.74 "HgN/A
11:00 AM64 °FScattered clouds.8 mph52%29.74 "HgN/A
10:30 AM63 °FSprinkles. Scattered clouds.13 mph64%29.74 "HgN/A
10:00 AM66 °FScattered clouds.No wind56%29.71 "HgN/A
9:30 AM66 °FScattered clouds.3 mph56%29.71 "HgN/A
9:00 AM63 °FScattered clouds.1 mph73%29.71 "HgN/A
8:30 AM63 °FSunny.1 mph68%29.71 "Hg10 mi
8:00 AM63 °FSunny.No wind68%29.71 "Hg10 mi
Weather by CustomWeather, © 2015

See weather overviewHow to use our weather pages